Probability
0 0 0 0 0 0 0 0 0 1 2 2 4 4 5 6 10 14 15 14 12 8 4 3 4 6 7 6 5 5 6 9 10 10 12 15 15 11 9 8 8 9 10 11
0 0 0 0 0 0 0 0 0 2 4 4 4 4 5 7 11 16 15 14 13 9 5 5 6 6 6 6 5 4 5 8 9 9 9 10 10 9 7 8 9 9 9 9
0 0 0 0 0 0 0 0 0 2 4 4 3 4 5 7 10 15 15 13 11 9 6 6 7 7 6 5 5 4 5 6 7 7 5 5 5 5 5 7 8 8 8 7
0 0 0 0 0 0 0 0 0 0 1 2 1 2 3 4 7 10 12 10 8 7 9 9 9 7 6 6 5 5 5 5 5 4 4 3 2 2 3 4 4 5 5 5
0 0 0 0 0 0 0 0 0 0 0 0 0 0 1 2 3 7 9 7 6 8 12 12 9 7 6 6 5 4 4 3 3 3 3 3 2 2 3 2 1 2 2 2
0 0 0 0 0 0 0 0 0 0 0 0 0 0 0 1 2 6 8 8 8 11 14 13 9 7 6 6 6 4 3 3 3 3 4 4 4 4 4 2 0 1 2 2
0 0 0 0 0 0 0 0 0 0 0 0 0 0 0 1 3 7 10 10 11 14 16 14 10 7 6 6 5 4 3 3 3 3 3 4 4 5 4 2 0 1 1 1
0 0 0 0 0 0 0 0 0 0 0 0 0 0 0 1 4 8 9 9 12 14 14 12 10 7 5 4 4 3 3 3 3 3 3 4 4 4 3 2 1 0 0 0
0 0 0 0 0 0 0 0 0 0 0 0 0 0 1 2 4 6 6 7 10 12 11 10 8 5 3 2 3 3 3 3 3 3 3 3 3 3 2 2 1 0 0 0
0 0 0 0 0 0 0 0 0 0 0 0 0 0 1 2 4 4 4 8 10 10 9 7 4 2 1 1 1 2 3 3 3 3 2 1 1 1 1 1 0 0 0 0
0 0 0 0 0 0 0 0 0 0 0 0 0 0 1 2 2 3 5 8 9 9 7 4 1 0 0 0 0 1 2 2 2 1 1 0 0 0 0 0 0 0 0 0
0 0 0 0 0 0 0 0 0 0 1 1 1 1 2 1 1 3 6 7 7 7 5 2 0 0 0 0 0 0 1 1 1 0 0 0 0 0 0 0 0 0 0 0
0 0 0 0 0 0 0 0 0 1 2 2 1 1 2 2 1 3 5 6 5 4 3 2 0 0 0 0 0 0 0 0 0 0 0 0 0 0 0 0 0 0 0 0
0 0 0 0 0 0 0 0 0 1 2 2 1 1 2 3 4 4 4 4 4 2 1 1 0 0 0 0 0 0 0 0 0 0 0 0 0 0 0 0 0 0 0 0
0 0 0 0 0 0 0 0 0 0 1 1 0 1 3 5 5 5 3 2 1 1 0 0 0 0 0 0 0 0 0 0 0 0 0 0 0 0 0 0 0 0 0 0
0 0 0 0 0 0 0 0 0 0 0 1 1 3 4 4 3 3 2 1 1 0 0 0 0 0 0 0 0 0 0 0 0 0 0 0 0 0 0 0 0 0 0 0
0 0 0 0 0 0 0 0 0 0 0 1 2 2 2 2 1 1 1 1 2 1 0 0 0 0 0 0 0 0 0 0 0 0 0 0 0 0 0 0 0 0 0 0
0 0 0 0 0 0 0 0 0 0 0 1 2 1 0 0 1 1 1 2 2 1 0 0 0 0 0 0 0 0 0 0 0 0 0 0 0 0 0 0 0 0 0 0
0 0 0 0 0 0 0 0 0 0 0 0 0 0 0 0 1 1 2 2 2 2 1 0 0 0 0 0 0 0 0 0 0 0 0 0 0 0 0 0 0 0 0 0
0 0 0 0 0 0 0 0 0 0 0 0 0 0 0 0 0 1 1 1 2 2 1 0 0 0 0 0 0 0 0 0 0 0 0 0 0 0 0 0 0 0 0 0
0 0 0 0 0 0 0 0 0 0 0 0 0 0 0 0 0 0 0 0 1 1 1 0 0 0 0 0 0 0 0 0 0 0 0 0 0 0 0 0 0 0 0 0
0 0 0 0 0 0 0 0 1 0 0 0 0 0 0 0 0 0 0 0 0 0 0 0 0 0 0 0 0 0 0 0 0 0 0 0 0 0 0 0 0 0 0 0
0 0 0 0 0 0 0 0 0 0 0 0 0 0 0 0 0 0 0 0 0 0 0 0 0 0 0 0 0 0 0 0 0 0 0 0 0 0 0 0 0 0 0 0
0 0 0 0 0 0 0 0 0 0 0 0 0 0 0 0 0 0 0 0 0 0 0 0 0 0 0 0 0 0 0 0 0 0 0 0 0 0 0 0 0 0 0 0
0 0 0 0 0 0 0 0 0 0 0 0 0 0 0 0 0 0 0 0 0 0 0 0 0 0 0 0 0 0 0 0 0 0 0 0 0 0 0 0 0 0 0 0
0 0 0 0 0 0 0 0 0 0 0 0 0 0 0 0 0 0 0 0 0 0 0 0 0 0 0 0 0 0 0 0 0 0 0 0 0 0 0 0 0 0 0 0
Wind_Speed
9 11 11 10 7 3 7 9 9 7 6 8 8 9 11 10 10 10 9 8 7 6 6 6 6 6 7 7 7 6 5 4 2 2 1 2 3 3 4 4 5 4 4 4
10 10 7 6 5 6 9 10 9 8 5 4 7 7 9 10 10 10 10 9 8 7 7 6 6 6 7 7 6 5 5 4 3 2 1 2 3 3 3 3 4 5 5 4
10 7 8 9 9 10 10 10 9 9 8 5 7 8 9 9 9 9 9 9 8 8 7 6 6 6 7 6 5 4 5 4 4 2 2 3 3 2 3 3 4 5 5 5
7 7 9 11 10 10 9 7 7 10 10 7 9 7 10 12 11 11 11 9 9 8 7 6 6 6 6 6 5 6 5 5 5 4 3 4 3 3 4 3 4 5 6 6
7 8 11 11 9 8 4 6 8 9 8 6 9 9 6 11 12 13 12 11 9 8 8 7 7 6 6 5 5 6 6 7 7 6 5 4 5 4 3 4 5 4 5 5
5 6 6 6 6 6 7 8 7 8 9 10 8 9 6 8 9 11 12 11 9 9 9 8 8 7 6 6 6 6 7 7 7 6 7 6 7 6 5 5 4 3 3 4
9 9 6 6 9 10 10 10 7 9 9 7 5 8 1 4 2 7 11 11 11 10 10 9 8 7 6 7 6 6 7 7 7 7 7 7 6 6 5 4 4 4 4 5
9 10 8 7 7 7 11 11 8 6 7 4 6 7 3 5 3 4 9 11 11 11 10 10 9 7 7 7 6 7 7 7 7 7 7 6 6 4 5 6 5 5 5 6
6 6 9 6 6 7 10 10 7 8 7 7 5 4 6 6 6 8 10 12 11 11 10 10 9 8 8 7 6 6 6 7 7 7 7 7 7 7 6 6 5 5 5 5
3 5 8 7 8 4 6 6 6 9 7 8 6 6 3 7 8 9 10 11 11 11 11 10 9 8 7 7 6 6 6 6 6 7 6 6 7 6 6 6 7 6 6 6
4 5 8 9 8 7 7 8 7 8 7 8 6 1 4 3 6 9 10 11 11 11 11 10 9 8 7 6 6 5 6 6 7 7 7 7 6 6 7 6 7 6 6 6
3 4 5 5 2 3 6 6 7 7 7 7 7 3 6 4 5 8 11 11 11 12 11 11 9 8 7 6 6 6 6 7 7 6 6 6 6 7 7 7 6 6 6 6
2 5 6 7 8 7 6 5 6 7 6 7 7 3 7 7 8 9 11 12 11 12 11 11 9 8 7 6 6 6 6 6 6 6 6 6 6 7 7 7 6 6 6 6
4 5 6 4 2 4 5 4 5 7 7 6 4 2 5 6 8 9 11 11 11 11 11 10 9 8 8 7 6 6 6 5 5 5 6 6 6 6 6 6 6 6 6 6
4 3 2 1 1 3 3 2 3 4 5 5 1 1 4 5 7 9 10 11 11 11 11 10 9 9 8 7 7 6 6 5 5 5 6 6 6 6 6 6 6 6 6 7
1 2 4 4 4 4 3 1 1 1 1 0 2 4 6 7 8 9 10 11 11 11 11 10 10 10 9 8 7 7 6 6 5 6 6 6 6 6 6 6 6 6 6 7
3 4 4 5 6 6 3 3 2 2 2 2 2 4 6 6 7 8 9 10 10 11 12 11 10 9 8 8 7 7 6 6 6 6 6 5 6 6 5 5 6 6 6 7
3 3 2 3 6 5 6 4 3 3 4 4 5 6 6 6 6 6 7 9 10 11 11 11 10 10 9 8 7 6 7 6 6 6 6 6 6 6 5 6 6 6 5 6
2 3 2 3 3 4 6 2 1 1 3 4 5 7 7 9 8 6 5 7 9 10 10 10 10 10 9 9 8 7 7 6 6 6 6 6 5 5 5 6 5 5 5 5
3 3 4 3 3 1 5 4 2 4 4 5 5 6 7 7 4 6 7 7 9 9 9 10 10 10 9 8 8 7 7 7 6 6 6 5 5 5 5 5 4 4 4 4
4 3 3 3 1 4 5 2 3 3 5 4 4 5 5 2 5 8 9 9 9 10 11 11 10 9 8 8 7 7 7 7 6 6 5 5 4 4 5 4 3 3 3 3
1 1 1 2 2 4 4 1 3 5 4 4 5 5 5 7 9 10 10 10 11 11 12 11 10 9 8 7 7 7 6 6 6 6 5 4 4 3 4 3 3 2 2 3
3 5 4 5 5 6 4 5 5 3 4 4 5 6 7 8 9 10 10 10 11 11 11 10 10 9 8 7 7 7 7 6 6 6 5 4 4 3 2 2 2 2 1 1
4 1 2 4 6 5 5 5 4 4 4 5 6 7 7 8 10 10 10 10 10 11 10 10 10 9 8 7 7 6 7 6 5 5 5 4 4 3 3 1 1 1 1 1
3 2 3 5 6 5 5 5 5 5 6 7 7 6 7 10 10 11 10 10 10 10 10 9 9 8 9 8 7 7 6 5 5 5 5 4 4 3 3 2 2 2 3 4
3 2 1 3 3 3 5 4 5 6 7 7 7 8 8 9 10 11 10 10 10 10 10 9 9 9 9 8 8 7 6 6 5 5 4 3 3 3 2 3 3 2 1 2
Wind_Direction
186 201 192 182 209 199 183 184 174 147 150 192 182 162 161 170 175 168 165 158 147 131 118 106 96 91 86 75 67 59 55 52 54 73 91 100 90 80 72 66 53 42 29 22
190 199 173 165 178 196 191 187 164 139 144 196 167 168 164 179 185 177 173 170 161 152 134 117 103 91 81 74 70 62 56 52 53 67 86 85 92 83 73 65 57 41 36 24
201 147 157 178 182 194 196 200 176 154 149 174 175 184 180 183 187 183 184 179 171 163 145 128 113 94 81 72 66 61 56 50 46 56 104 120 123 113 83 64 57 45 40 40
196 153 182 194 192 200 194 189 178 169 189 184 212 224 184 182 190 194 189 183 175 163 148 130 116 101 87 75 69 62 58 56 56 57 66 76 76 72 58 48 56 57 49 44
172 174 191 197 192 211 179 162 186 194 217 213 210 248 178 178 199 198 190 181 173 164 153 137 122 110 98 89 78 68 64 60 57 56 63 75 79 76 70 63 63 55 55 44
154 177 203 193 178 189 153 160 175 208 222 228 213 242 207 183 206 189 179 172 164 157 144 133 124 115 104 96 88 79 74 64 60 62 65 66 75 75 69 58 51 51 53 45
170 175 179 189 177 177 192 195 201 211 220 226 178 235 222 119 174 183 169 162 158 150 140 132 128 122 114 102 93 87 82 74 69 67 65 65 73 81 73 60 57 41 43 41
184 175 176 190 207 195 207 224 240 243 237 213 186 229 107 88 91 136 145 148 147 146 142 134 127 123 115 107 102 95 87 80 74 71 68 65 64 67 66 54 50 47 39 39
201 166 159 180 207 216 208 227 266 271 263 250 215 183 137 130 129 131 138 145 147 144 140 135 129 124 116 108 96 93 92 86 79 75 76 72 64 62 63 60 51 50 41 39
238 181 168 172 190 203 247 221 231 248 248 251 227 220 183 161 160 154 152 149 146 143 139 133 130 124 114 107 97 91 89 86 85 80 75 75 70 68 66 59 54 48 46 41
236 208 175 187 208 200 201 210 234 253 269 268 257 173 66 127 160 162 157 152 147 144 140 134 127 119 115 111 103 110 102 93 85 80 78 76 73 71 69 65 59 52 46 40
225 239 192 181 169 238 228 236 236 249 254 265 278 90 72 97 129 147 147 144 143 143 138 133 130 127 122 113 105 100 99 95 90 86 83 79 76 74 71 68 62 57 51 44
197 218 198 184 182 190 211 222 243 256 259 256 260 126 97 104 117 131 137 139 141 142 139 136 137 135 128 121 115 109 103 99 97 96 93 87 79 76 73 69 59 54 52 50
270 237 245 232 198 189 202 214 237 252 256 256 261 150 131 126 133 136 139 142 145 146 145 144 145 141 134 130 123 119 111 107 105 101 99 91 84 81 77 72 64 54 51 51
256 220 201 131 127 183 185 207 233 255 285 282 292 125 120 134 140 141 143 145 147 149 151 152 149 142 138 134 133 127 123 125 118 110 103 96 93 88 81 74 68 60 53 52
244 182 164 154 148 149 138 125 190 243 311 294 129 95 94 115 127 138 147 153 155 156 157 155 149 145 146 144 142 136 131 131 126 114 104 101 100 92 83 77 71 65 57 51
182 194 198 178 172 198 150 44 17 77 41 352 34 88 124 133 141 153 158 161 159 157 157 156 153 150 147 143 142 139 133 135 128 117 111 108 103 95 89 84 75 68 64 58
195 211 223 189 202 214 84 57 38 85 69 55 77 102 120 123 124 135 156 161 158 157 157 156 152 147 144 141 141 137 135 136 129 122 115 108 104 99 94 87 77 70 69 63
221 230 230 217 205 136 125 113 351 306 94 79 104 115 118 120 125 125 140 152 152 154 153 149 147 143 142 143 143 142 140 139 135 127 118 111 109 106 97 87 82 75 73 71
158 228 242 230 241 164 88 56 343 264 143 103 117 130 138 162 173 128 135 137 137 141 140 140 141 141 141 144 151 150 145 143 134 125 118 112 107 101 94 89 86 86 85 81
171 191 229 235 228 84 55 15 265 268 73 97 123 136 152 134 66 116 135 134 135 138 138 141 143 141 142 148 151 147 143 136 129 127 121 113 111 110 104 101 94 93 93 83
296 196 166 249 218 91 46 37 13 41 78 108 118 128 120 101 110 127 136 138 140 141 143 144 143 141 144 152 156 147 136 130 133 134 129 125 126 119 112 115 105 96 102 127
28 16 24 26 52 70 58 57 56 67 104 114 123 125 125 127 132 136 140 142 143 143 143 145 145 142 146 156 158 144 137 140 142 140 135 134 133 121 118 130 133 147 161 144
109 71 99 106 101 98 90 81 79 84 98 113 123 133 141 138 138 140 141 142 144 145 145 148 150 149 148 150 149 143 142 146 149 147 146 148 148 149 143 186 144 92 47 57
72 129 120 117 122 127 99 83 89 95 106 114 121 132 138 138 143 143 144 146 147 147 148 153 154 149 148 149 147 147 149 157 154 150 152 156 149 138 150 128 40 11 45 20
41 26 19 87 114 110 104 98 108 115 117 120 126 127 135 142 145 147 147 148 148 149 151 153 154 153 151 151 151 152 157 162 161 163 164 160 153 151 161 147 141 106 22 105